Marshfield, WI

11:35 AM CST on February 10, 2016 (GMT -0600)
Marshfield Municipal

Weather History for KMFI - July, 2013

Change the Weather History Date:

Tuesday, July 30, 2013

  Actual Average Record
Temperature  
Mean Temperature 65 °F -  
Max Temperature 73 °F 79 °F 100 °F (1933)
Min Temperature 57 °F 56 °F 39 °F (1918)
Growing Degree Days 15 (Base 50)    
Moisture  
Dew Point 58 °F    
Average Humidity 80    
Maximum Humidity 97    
Minimum Humidity 57    
Precipitation  
Precipitation 0.00 in - - ()
Sea Level Pressure  
Sea Level Pressure 30.13 in    
Wind  
Wind Speed 3 mph (South)    
Max Wind Speed 8 mph    
Max Gust Speed -    
Visibility 10 miles    
Events Rain    
Averages and records for this station are not official NWS values.
T = Trace of Precipitation, MM = Missing Value Source: NWS Daily Summary

Daily Weather History Graph

Daily Weather History Graph

Search for Another Location

Airport or City:

Trip Planner

Search our weather history database for the weather conditions in past years. The results will help you decide how hot, cold, wet, or windy it might be!

Date:

Astronomy

Jul. 30, 2013 Rise Set
Actual Time 5:45 AM CDT 8:28 PM CDT
Civil Twilight 5:11 AM CDT 9:01 PM CDT
Nautical Twilight 4:28 AM CDT 9:44 PM CDT
Astronomical Twilight 3:39 AM CDT 10:33 PM CDT
Moon 12:05 AM CDT (7/30) 2:47 PM CDT (7/30)
Length of Visible Light 15h 50m
Length of Day
14h 43m
Last Quarter, 41% of the Moon is Illuminated
Jul 30
Last Quarter
Aug 6
New
Aug 14
First Quarter
Aug 20
Full
Aug 28
Last Quarter

Hourly Weather History & Observations

Time (CDT) Temp. Dew Point Humidity Pressure Visibility Wind Dir Wind Speed Gust Speed Precip Events Conditions
12:54 AM 60.1 °F 55.0 °F 83% 30.15 in 10.0 mi Calm Calm - N/A   Clear
1:54 AM 57.9 °F 55.0 °F 90% 30.14 in 10.0 mi SSE 3.5 mph - N/A   Clear
2:54 AM 57.0 °F 55.0 °F 93% 30.14 in 10.0 mi South 3.5 mph - N/A   Clear
3:54 AM 57.0 °F 55.9 °F 96% 30.15 in 10.0 mi South 4.6 mph - N/A   Mostly Cloudy
4:54 AM 57.9 °F 55.9 °F 93% 30.14 in 10.0 mi South 4.6 mph - N/A   Overcast
5:54 AM 57.9 °F 57.0 °F 97% 30.15 in 10.0 mi Calm Calm - N/A   Overcast
6:54 AM 59.0 °F 57.0 °F 93% 30.17 in 10.0 mi SSE 3.5 mph - N/A   Overcast
7:54 AM 60.1 °F 57.9 °F 93% 30.17 in 10.0 mi South 4.6 mph - 0.00 in Rain Light Rain
8:54 AM 60.1 °F 57.9 °F 93% 30.18 in 9.0 mi Calm Calm - 0.00 in   Overcast
9:54 AM 61.0 °F 59.0 °F 93% 30.17 in 10.0 mi Calm Calm - N/A   Overcast
10:54 AM 64.9 °F 60.1 °F 84% 30.17 in 10.0 mi South 4.6 mph - 0.00 in   Overcast
11:54 AM 70.0 °F 59.0 °F 68% 30.15 in 10.0 mi SSW 5.8 mph - N/A   Overcast
12:54 PM 69.1 °F 57.9 °F 68% 30.14 in 10.0 mi SSW 3.5 mph - N/A   Overcast
1:54 PM 70.0 °F 57.9 °F 65% 30.13 in 10.0 mi SSW 4.6 mph - N/A   Overcast
2:54 PM 73.0 °F 59.0 °F 61% 30.11 in 10.0 mi Variable 4.6 mph - N/A   Overcast
3:54 PM 73.0 °F 57.0 °F 57% 30.10 in 10.0 mi Calm Calm - N/A   Overcast
4:54 PM 73.0 °F 59.0 °F 61% 30.09 in 10.0 mi South 6.9 mph - N/A   Overcast
5:54 PM 71.1 °F 60.1 °F 68% 30.09 in 10.0 mi South 3.5 mph - N/A   Overcast
6:54 PM 71.1 °F 60.1 °F 68% 30.09 in 10.0 mi South 3.5 mph - N/A   Overcast
7:54 PM 68.0 °F 61.0 °F 78% 30.08 in 10.0 mi Calm Calm - N/A   Overcast
8:54 PM 68.0 °F 62.1 °F 81% 30.09 in 10.0 mi South 3.5 mph - N/A   Overcast
9:54 PM 66.9 °F 60.1 °F 79% 30.09 in 10.0 mi South 8.1 mph - N/A   Overcast
10:54 PM 66.0 °F 60.1 °F 81% 30.09 in 10.0 mi South 5.8 mph - N/A   Overcast
11:54 PM 66.0 °F 60.1 °F 81% 30.07 in 10.0 mi South 6.9 mph - N/A   Overcast